Location: Hac?musa Deresi
(39.1694°N, 32.2508°E)
Time: 22:40:49
(UTC+00:00)

YAOGAN 11 - Pass Details

Date: 22 April 2026
Orbit: 598 x 647 km, 98.4° (Epoch: 9 May)

Event Time Altitude Azimuth Distance (km) Brightness Sun altitude
Rises 18:38:16 0° 11° (NNE) 2,876 7.9 -21.9°
Reaches altitude 10° 18:40:26 10° 11° (N) 1,974 7.0 -22.2°
Maximum altitude 18:44:43 80° 285° (WNW) 632 4.0 -22.9°
Enters shadow 18:45:56 47° 206° (SSW) 823 4.5 -23.0°
